Location: Hermaringen
(48.5952°N, 10.2585°E)
Time: 11:23:36
(UTC+00:00)

Courier 1B - Pass Details

Date: 20 February 2026
Orbit: 962 x 1208 km, 28.3° (Epoch: 7 March)

Event Time Altitude Azimuth Distance (km) Brightness Sun altitude
Rises 19:00:29 0° 224° (SW) 3,875 11.1 -22.5°
Reaches altitude 10° 19:04:44 10° 201° (SSW) 2,975 10.1 -23.2°
Maximum altitude 19:08:15 14° 172° (S) 2,720 9.6 -23.7°
Enters shadow 19:09:14 14° 164° (SSE) 2,754 9.6 -23.9°
Drops below altitude 10° 19:11:51 10° 143° (SE) 3,059 - -24.3°
Sets 19:16:21 0° 121° (ESE) 4,062 - -25.0°
